| time (UTC) | temp C | wind direction | speed KPH | gust KPH | rain 1hr cm | rain 24hr cm | rain mn cm | humidity % | barometer mb |
| 20260504233113 | 22 | 296 | 1.6 | 3.2 | 0.00 | 0.05 | 0.00 | 36 | 1001.7 |
| 20260504232612 | 22 | 187 | 1.6 | 4.8 | 0.00 | 0.05 | 0.00 | 35 | 1001.7 |
| 20260504232113 | 22 | 253 | 1.6 | 4.8 | 0.00 | 0.05 | 0.00 | 35 | 1001.6 |
| 20260504231611 | 23 | 281 | 1.6 | 4.8 | 0.00 | 0.05 | 0.00 | 35 | 1001.6 |
| 20260504231111 | 23 | 283 | 3.2 | 9.7 | 0.00 | 0.05 | 0.00 | 34 | 1001.5 |
| 20260504230611 | 23 | 280 | 4.8 | 9.7 | 0.00 | 0.05 | 0.00 | 33 | 1001.4 |
| 20260504230111 | 23 | 315 | 4.8 | 9.7 | 0.00 | 0.05 | 0.00 | 33 | 1001.3 |
| 20260504225612 | 23 | 293 | 3.2 | 9.7 | 0.00 | 0.05 | 0.00 | 33 | 1001.3 |
| 20260504225111 | 23 | 310 | 3.2 | 9.7 | 0.00 | 0.05 | 0.00 | 33 | 1001.2 |
| 20260504224612 | 23 | 309 | 4.8 | 12.9 | 0.00 | 0.05 | 0.00 | 33 | 1001.3 |
| 20260504224112 | 23 | 243 | 6.4 | 14.5 | 0.00 | 0.05 | 0.00 | 33 | 1001.2 |
| 20260504223611 | 23 | 280 | 8.0 | 14.5 | 0.00 | 0.05 | 0.00 | 32 | 1001.3 |
| 20260504223113 | 23 | 280 | 8.0 | 19.3 | 0.00 | 0.05 | 0.00 | 31 | 1001.3 |
| 20260504223107 | 23 | 254 | 9.7 | 24.1 | 0.00 | 0.05 | 0.00 | 32 | 1001.3 |
| 20260504222112 | 23 | 288 | 9.7 | 24.1 | 0.00 | 0.05 | 0.00 | 32 | 1001.3 |
| 20260504221611 | 23 | 309 | 8.0 | 19.3 | 0.00 | 0.05 | 0.00 | 33 | 1001.3 |
| 20260504221112 | 23 | 278 | 6.4 | 19.3 | 0.00 | 0.05 | 0.00 | 32 | 1001.3 |
| 20260504220610 | 23 | 284 | 8.0 | 19.3 | 0.00 | 0.05 | 0.00 | 33 | 1001.5 |
| 20260504220108 | 23 | 273 | 8.0 | 19.3 | 0.00 | 0.05 | 0.00 | 33 | 1001.5 |
| 20260504215608 | 23 | 247 | 6.4 | 16.1 | 0.00 | 0.05 | 0.00 | 33 | 1001.6 |
| 20260504215108 | 23 | 272 | 8.0 | 17.7 | 0.00 | 0.05 | 0.00 | 33 | 1001.6 |
| 20260504214607 | 23 | 241 | 9.7 | 20.9 | 0.00 | 0.05 | 0.00 | 34 | 1001.7 |
| 20260504214107 | 23 | 281 | 8.0 | 20.9 | 0.00 | 0.05 | 0.00 | 33 | 1001.6 |
| 20260504213607 | 23 | 321 | 6.4 | 16.1 | 0.00 | 0.05 | 0.00 | 34 | 1001.6 |
| 20260504213106 | 23 | 278 | 8.0 | 16.1 | 0.00 | 0.05 | 0.00 | 33 | 1001.7 |
| 20260504212832 | 23 | 290 | 9.7 | 20.9 | 0.00 | 0.05 | 0.00 | 34 | 1001.8 |
| 20260504212107 | 23 | 292 | 11.3 | 22.5 | 0.00 | 0.05 | 0.00 | 34 | 1001.7 |
| 20260504211607 | 23 | 344 | 11.3 | 22.5 | 0.00 | 0.05 | 0.00 | 34 | 1001.8 |
| 20260504211335 | 23 | 273 | 12.9 | 24.1 | 0.00 | 0.05 | 0.00 | 35 | 1001.8 |
| 20260504210832 | 23 | 280 | 11.3 | 24.1 | 0.00 | 0.05 | 0.00 | 34 | 1001.8 |
| 20260504210329 | 23 | 295 | 9.7 | 20.9 | 0.00 | 0.05 | 0.00 | 35 | 1001.7 |
| 20260504205603 | 22 | 325 | 12.9 | 25.7 | 0.00 | 0.05 | 0.00 | 36 | 1001.8 |
| 20260504205104 | 22 | 302 | 11.3 | 25.7 | 0.00 | 0.05 | 0.00 | 35 | 1001.8 |
| 20260504204601 | 22 | 328 | 9.7 | 22.5 | 0.00 | 0.05 | 0.00 | 36 | 1002.0 |
| 20260504204546 | 22 | 294 | 11.3 | 25.7 | 0.00 | 0.05 | 0.00 | 36 | 1002.1 |
| 20260504203602 | 22 | 301 | 11.3 | 25.7 | 0.00 | 0.05 | 0.00 | 37 | 1002.1 |
| 20260504203102 | 22 | 244 | 11.3 | 22.5 | 0.00 | 0.05 | 0.00 | 38 | 1002.2 |
| 20260504202602 | 22 | 266 | 9.7 | 22.5 | 0.00 | 0.05 | 0.00 | 39 | 1002.2 |
| 20260504202102 | 22 | 253 | 9.7 | 22.5 | 0.00 | 0.05 | 0.00 | 39 | 1002.3 |
| 20260504201601 | 22 | 308 | 9.7 | 20.9 | 0.00 | 0.05 | 0.00 | 38 | 1002.2 |
| 20260504201101 | 22 | 292 | 11.3 | 20.9 | 0.00 | 0.05 | 0.00 | 39 | 1002.3 |
| 20260504200601 | 22 | 213 | 11.3 | 27.4 | 0.00 | 0.05 | 0.00 | 39 | 1002.4 |
| 20260504200101 | 22 | 283 | 11.3 | 27.4 | 0.00 | 0.05 | 0.00 | 38 | 1002.5 |
| 20260504195559 | 22 | 312 | 11.3 | 22.5 | 0.00 | 0.05 | 0.00 | 37 | 1002.5 |
| 20260504195059 | 22 | 271 | 11.3 | 22.5 | 0.00 | 0.05 | 0.00 | 39 | 1002.6 |
| 20260504194555 | 22 | 269 | 12.9 | 27.4 | 0.00 | 0.05 | 0.00 | 39 | 1002.6 |
| 20260504194055 | 22 | 303 | 12.9 | 27.4 | 0.00 | 0.05 | 0.00 | 40 | 1002.8 |
| 20260504193555 | 22 | 278 | 11.3 | 20.9 | 0.00 | 0.05 | 0.00 | 41 | 1002.8 |
| 20260504193318 | 22 | 9 | 11.3 | 27.4 | 0.00 | 0.05 | 0.00 | 41 | 1002.9 |
| 20260504192556 | 22 | 262 | 16.1 | 33.8 | 0.00 | 0.05 | 0.00 | 40 | 1002.9 |
| 20260504192058 | 22 | 286 | 14.5 | 33.8 | 0.00 | 0.05 | 0.00 | 41 | 1002.9 |
| 20260504191557 | 22 | 328 | 11.3 | 27.4 | 0.00 | 0.05 | 0.00 | 41 | 1003.0 |
| 20260504191325 | 22 | 304 | 12.9 | 27.4 | 0.00 | 0.05 | 0.00 | 42 | 1003.0 |
| 20260504190557 | 22 | 234 | 11.3 | 27.4 | 0.00 | 0.05 | 0.00 | 43 | 1003.1 |
| 20260504190057 | 21 | 284 | 9.7 | 20.9 | 0.00 | 0.05 | 0.00 | 44 | 1003.3 |
| 20260504185554 | 21 | 300 | 11.3 | 22.5 | 0.00 | 0.05 | 0.00 | 43 | 1003.4 |
| 20260504185053 | 21 | 282 | 12.9 | 25.7 | 0.00 | 0.05 | 0.00 | 43 | 1003.3 |
| 20260504184552 | 21 | 277 | 14.5 | 25.7 | 0.00 | 0.05 | 0.00 | 44 | 1003.4 |
| 20260504184051 | 21 | 300 | 12.9 | 25.7 | 0.00 | 0.05 | 0.00 | 44 | 1003.5 |
| 20260504183815 | 21 | 270 | 11.3 | 25.7 | 0.00 | 0.05 | 0.00 | 46 | 1003.7 |
| 20260504183052 | 21 | 326 | 11.3 | 20.9 | 0.00 | 0.05 | 0.00 | 45 | 1003.7 |
| 20260504182552 | 21 | 293 | 11.3 | 25.7 | 0.00 | 0.05 | 0.00 | 45 | 1003.7 |
| 20260504182051 | 21 | 286 | 16.1 | 30.6 | 0.00 | 0.05 | 0.00 | 44 | 1003.8 |
| 20260504181552 | 21 | 302 | 16.1 | 35.4 | 0.00 | 0.05 | 0.00 | 45 | 1003.7 |
| 20260504181052 | 20 | 301 | 14.5 | 35.4 | 0.00 | 0.05 | 0.00 | 45 | 1003.7 |
| 20260504180814 | 21 | 236 | 14.5 | 30.6 | 0.00 | 0.05 | 0.00 | 45 | 1003.8 |
| 20260504180053 | 20 | 308 | 14.5 | 27.4 | 0.00 | 0.05 | 0.00 | 45 | 1003.8 |
| 20260504175552 | 20 | 281 | 14.5 | 27.4 | 0.00 | 0.05 | 0.00 | 46 | 1004.1 |
| 20260504175048 | 20 | 247 | 14.5 | 27.4 | 0.00 | 0.05 | 0.00 | 47 | 1003.9 |
| 20260504174549 | 20 | 344 | 17.7 | 27.4 | 0.00 | 0.05 | 0.00 | 46 | 1004.0 |
| 20260504174050 | 20 | 295 | 16.1 | 27.4 | 0.00 | 0.05 | 0.00 | 47 | 1004.1 |
| 20260504173550 | 20 | 265 | 14.5 | 30.6 | 0.00 | 0.05 | 0.00 | 46 | 1004.0 |
| 20260504173050 | 20 | 267 | 14.5 | 30.6 | 0.00 | 0.05 | 0.00 | 47 | 1004.0 |
| 20260504172551 | 20 | 294 | 14.5 | 35.4 | 0.00 | 0.05 | 0.00 | 47 | 1004.0 |
| 20260504172533 | 20 | 294 | 14.5 | 35.4 | 0.00 | 0.05 | 0.00 | 47 | 1004.0 |
| 20260504171550 | 20 | 300 | 11.3 | 27.4 | 0.00 | 0.05 | 0.00 | 47 | 1003.9 |
| 20260504171050 | 20 | 319 | 14.5 | 27.4 | 0.00 | 0.05 | 0.00 | 48 | 1004.1 |
| 20260504170550 | 20 | 270 | 12.9 | 27.4 | 0.00 | 0.05 | 0.00 | 48 | 1004.1 |
| 20260504151046 | 16 | 290 | 12.9 | 20.9 | 0.00 | 0.05 | 0.00 | 53 | 1005.2 |
| 20260504150546 | 17 | 315 | 11.3 | 22.5 | 0.00 | 0.05 | 0.00 | 52 | 1005.2 |
| 20260504150304 | 16 | 244 | 9.7 | 22.5 | 0.00 | 0.05 | 0.00 | 53 | 1005.2 |
| 20260504141045 | 16 | 251 | 9.7 | 19.3 | 0.00 | 0.05 | 0.00 | 52 | 1005.2 |
| 20260504140543 | 15 | 267 | 9.7 | 19.3 | 0.00 | 0.05 | 0.00 | 54 | 1005.3 |
| 20260504130803 | 13 | 262 | 11.3 | 24.1 | 0.00 | 0.05 | 0.00 | 54 | 1005.9 |
| 20260504110538 | 11 | 246 | 4.8 | 9.7 | 0.00 | 0.05 | 0.00 | 57 | 1006.0 |
| 20260504100532 | 11 | 263 | 6.4 | 14.5 | 0.00 | 0.05 | 0.00 | 54 | 1005.8 |
| 20260504081526 | 11 | 258 | 8.0 | 16.1 | 0.00 | 0.05 | 0.00 | 55 | 1006.3 |
| 20260504081026 | 11 | 238 | 8.0 | 17.7 | 0.00 | 0.05 | 0.00 | 55 | 1006.4 |
| 20260504080527 | 11 | 228 | 6.4 | 17.7 | 0.00 | 0.05 | 0.00 | 55 | 1006.4 |
| 20260504050512 | 12 | 273 | 4.8 | 11.3 | 0.00 | 0.05 | 0.00 | 54 | 1007.6 |
| 20260504050012 | 12 | 288 | 6.4 | 16.1 | 0.00 | 0.05 | 0.00 | 53 | 1007.6 |
| 20260504045512 | 12 | 260 | 6.4 | 16.1 | 0.00 | 0.05 | 0.00 | 52 | 1007.6 |
| 20260504045010 | 12 | 231 | 6.4 | 20.9 | 0.00 | 0.05 | 0.00 | 52 | 1007.6 |
| 20260504044510 | 12 | 295 | 6.4 | 20.9 | 0.00 | 0.05 | 0.00 | 52 | 1007.6 |
| 20260504044011 | 13 | 273 | 6.4 | 19.3 | 0.00 | 0.05 | 0.00 | 52 | 1007.6 |
| 20260504043512 | 13 | 243 | 8.0 | 17.7 | 0.00 | 0.05 | 0.00 | 52 | 1007.5 |
| 20260504043012 | 12 | 275 | 8.0 | 17.7 | 0.00 | 0.05 | 0.00 | 52 | 1007.5 |
| 20260504042732 | 12 | 286 | 6.4 | 16.1 | 0.00 | 0.05 | 0.00 | 52 | 1007.6 |
| 20260504042458 | 12 | 256 | 8.0 | 17.7 | 0.00 | 0.05 | 0.00 | 52 | 1007.5 |
| 20260504041508 | 12 | 312 | 8.0 | 17.7 | 0.00 | 0.05 | 0.00 | 53 | 1007.6 |
| 20260504041010 | 12 | 301 | 6.4 | 14.5 | 0.00 | 0.05 | 0.00 | 53 | 1007.6 |
| 20260504040505 | 12 | 231 | 4.8 | 14.5 | 0.00 | 0.05 | 0.00 | 54 | 1007.6 |
| 20260504040225 | 12 | 251 | 4.8 | 11.3 | 0.00 | 0.05 | 0.00 | 54 | 1007.6 |
| 20260504035507 | 12 | 236 | 6.4 | 14.5 | 0.00 | 0.05 | 0.05 | 54 | 1007.6 |